Location: Catstown
(52.4386°N, 7.2633°W)
Time: 12:20:14
(UTC+00:00)

CZ-2C R/B - Pass Details

Date: 18 September 2020
Orbit: 785 x 870 km, 98.2° (Epoch: 22 October)

Event Time Altitude Azimuth Distance (km) Brightness Sun altitude
Rises 20:56:14 0° 12° (NNE) 3,403 6.1 -21.0°
Reaches altitude 10° 20:58:37 10° 9° (N) 2,477 5.4 -21.3°
Maximum altitude 21:04:01 60° 291° (WNW) 982 3.3 -22.0°
Drops below altitude 10° 21:09:29 10° 213° (SSW) 2,502 5.1 -22.7°
Sets 21:11:54 0° 210° (SSW) 3,441 5.8 -23.0°
